TNO5555 SBVT-SBBE

Flight info

Callsign TNO5555
Flight time 3h 0m
Altitude 38000
Route TERAT DCT OSAGU/N0446F390 DCT LOMAB/N0443F380 DCT TOBTA DCT KILAB DCT ARVIB/N0441F390 UZ3 KUGEL/N0440F380 DCT KODSU
Aircraft A20N/M-SDE2E3FGHIRWXY/LB1

Departure

Time 2026-05-04 01:03
Airport Eurico de Aguiar Salles International Airport (SBVT)

Arrival

Time 2026-05-04 04:03
Airport Val de Cans/Júlio Cezar Ribeiro International Airport (SBBE)
Time Latitude Longitude Altitude Speed Heading
2026-05-04 00:59 -20.25733 -40.28632 26 ft 20 kts 62°
2026-05-04 00:59 -20.25629 -40.28565 25 ft 17 kts 19°
2026-05-04 00:59 -20.25528 -40.28511 23 ft 16 kts 40°
2026-05-04 00:59 -20.25439 -40.28453 27 ft 14 kts 30°
2026-05-04 01:00 -20.25357 -40.28402 26 ft 13 kts 30°
2026-05-04 01:00 -20.25279 -40.28352 24 ft 13 kts 33°
2026-05-04 01:00 -20.25203 -40.28298 23 ft 13 kts 33°
2026-05-04 01:00 -20.25131 -40.28247 22 ft 12 kts 33°
2026-05-04 01:01 -20.25062 -40.28197 22 ft 12 kts 34°
2026-05-04 01:01 -20.24999 -40.28153 22 ft 10 kts 34°
2026-05-04 01:01 -20.24934 -40.28115 20 ft 14 kts 20°
2026-05-04 01:01 -20.24830 -40.28077 19 ft 15 kts 13°
2026-05-04 01:02 -20.24806 -40.28108 19 ft 6 kts 178°
2026-05-04 01:02 -20.24862 -40.28097 21 ft 26 kts 170°
2026-05-04 01:02 -20.25295 -40.28033 26 ft 99 kts 172°
2026-05-04 01:02 -20.26186 -40.27885 251 ft 145 kts 171°
2026-05-04 01:03 -20.27274 -40.27700 668 ft 175 kts 175°
2026-05-04 01:03 -20.28515 -40.27533 1399 ft 187 kts 174°
2026-05-04 01:03 -20.29891 -40.27348 1792 ft 213 kts 173°
2026-05-04 01:03 -20.31445 -40.27127 2235 ft 234 kts 173°
2026-05-04 01:04 -20.33081 -40.26889 3007 ft 237 kts 173°
2026-05-04 01:04 -20.34709 -40.26662 3909 ft 236 kts 175°
2026-05-04 01:04 -20.36361 -40.26769 4660 ft 243 kts 193°
2026-05-04 01:04 -20.37885 -40.27620 5317 ft 257 kts 219°
2026-05-04 01:05 -20.38895 -40.29200 5937 ft 272 kts 249°
2026-05-04 01:05 -20.39053 -40.31233 6621 ft 285 kts 279°
2026-05-04 01:05 -20.38266 -40.33190 7362 ft 290 kts 300°
2026-05-04 01:05 -20.37165 -40.34979 8226 ft 289 kts 303°
2026-05-04 01:06 -20.36024 -40.36748 9045 ft 289 kts 304°
2026-05-04 01:06 -20.34889 -40.38520 9884 ft 291 kts 304°
2026-05-04 01:06 -20.33749 -40.40318 10538 ft 298 kts 303°
2026-05-04 01:06 -20.32559 -40.42211 10827 ft 317 kts 303°
2026-05-04 01:07 -20.31300 -40.44226 11066 ft 335 kts 303°
2026-05-04 01:07 -20.30003 -40.46305 11413 ft 347 kts 303°
2026-05-04 01:07 -20.28656 -40.48466 11984 ft 351 kts 303°
2026-05-04 01:07 -20.27301 -40.50641 12562 ft 354 kts 303°
2026-05-04 01:08 -20.25794 -40.52730 13160 ft 357 kts 315°
2026-05-04 01:08 -20.23712 -40.54168 13747 ft 361 kts 338°
2026-05-04 01:08 -20.21237 -40.54619 14329 ft 366 kts 359°
2026-05-04 01:08 -20.18672 -40.54432 14799 ft 372 kts
2026-05-04 01:09 -20.16124 -40.54135 15302 ft 375 kts
2026-05-04 01:09 -20.13515 -40.53844 15783 ft 379 kts
2026-05-04 01:09 -20.10878 -40.53574 16268 ft 383 kts
2026-05-04 01:09 -20.08208 -40.53317 16763 ft 386 kts
2026-05-04 01:10 -20.05518 -40.53068 17285 ft 389 kts
2026-05-04 01:10 -20.02811 -40.52824 17763 ft 392 kts
2026-05-04 01:10 -20.00082 -40.52581 18245 ft 395 kts
2026-05-04 01:10 -19.97331 -40.52337 18658 ft 399 kts
2026-05-04 01:11 -19.94594 -40.52095 19042 ft 401 kts
2026-05-04 01:11 -19.91801 -40.51850 19430 ft 404 kts
2026-05-04 01:11 -19.88983 -40.51603 19795 ft 407 kts
2026-05-04 01:11 -19.86151 -40.51354 20181 ft 410 kts
2026-05-04 01:12 -19.83300 -40.51105 20584 ft 413 kts
2026-05-04 01:12 -19.80425 -40.50854 20982 ft 416 kts
2026-05-04 01:12 -19.77532 -40.50600 21386 ft 419 kts
2026-05-04 01:12 -19.74655 -40.50350 21765 ft 422 kts
2026-05-04 01:13 -19.71721 -40.50254 22166 ft 422 kts 354°
2026-05-04 01:13 -19.68798 -40.50556 22580 ft 423 kts 349°
2026-05-04 01:13 -19.65881 -40.51004 23008 ft 425 kts 348°
2026-05-04 01:13 -19.62942 -40.51479 23434 ft 428 kts 348°
2026-05-04 01:14 -19.59987 -40.51957 23817 ft 431 kts 348°
2026-05-04 01:14 -19.57010 -40.52436 24194 ft 433 kts 348°
2026-05-04 01:14 -19.54070 -40.52906 24584 ft 434 kts 348°
2026-05-04 01:14 -19.51078 -40.53382 24962 ft 435 kts 348°
2026-05-04 01:15 -19.48086 -40.53859 25366 ft 436 kts 348°
2026-05-04 01:15 -19.45083 -40.54337 25748 ft 437 kts 347°
2026-05-04 01:15 -19.42069 -40.54815 26121 ft 438 kts 347°
2026-05-04 01:15 -19.39053 -40.55295 26470 ft 439 kts 347°
2026-05-04 01:16 -19.36024 -40.55776 26833 ft 441 kts 347°
2026-05-04 01:16 -19.32982 -40.56259 27199 ft 442 kts 347°
2026-05-04 01:16 -19.29934 -40.56742 27555 ft 444 kts 347°
2026-05-04 01:16 -19.26877 -40.57222 27837 ft 445 kts 347°
2026-05-04 01:17 -19.23851 -40.57703 28151 ft 446 kts 347°
2026-05-04 01:17 -19.20776 -40.58192 28458 ft 448 kts 347°
2026-05-04 01:17 -19.17688 -40.58682 28784 ft 449 kts 347°
2026-05-04 01:17 -19.14592 -40.59172 29122 ft 450 kts 347°
2026-05-04 01:18 -19.11486 -40.59663 29421 ft 452 kts 347°
2026-05-04 01:18 -19.08376 -40.60155 29786 ft 452 kts 347°
2026-05-04 01:18 -19.05272 -40.60645 30256 ft 450 kts 347°
2026-05-04 01:18 -19.02182 -40.61132 30638 ft 448 kts 347°
2026-05-04 01:19 -18.99104 -40.61618 30963 ft 447 kts 347°
2026-05-04 01:19 -18.96063 -40.62099 31210 ft 449 kts 347°
2026-05-04 01:19 -18.92972 -40.62587 31481 ft 449 kts 347°
2026-05-04 01:19 -18.89883 -40.63075 31805 ft 449 kts 347°
2026-05-04 01:20 -18.86794 -40.63562 32114 ft 448 kts 347°
2026-05-04 01:20 -18.83710 -40.64048 32429 ft 448 kts 347°
2026-05-04 01:20 -18.80633 -40.64533 32773 ft 447 kts 347°
2026-05-04 01:20 -18.77564 -40.65016 33086 ft 446 kts 347°
2026-05-04 01:21 -18.74490 -40.65499 33376 ft 446 kts 347°
2026-05-04 01:21 -18.71467 -40.65975 33658 ft 446 kts 347°
2026-05-04 01:21 -18.68410 -40.66457 33903 ft 446 kts 347°
2026-05-04 01:21 -18.65338 -40.66940 34172 ft 446 kts 346°
2026-05-04 01:22 -18.62273 -40.67423 34413 ft 445 kts 346°
2026-05-04 01:22 -18.59211 -40.67904 34669 ft 445 kts 346°
2026-05-04 01:22 -18.56153 -40.68384 34922 ft 444 kts 346°
2026-05-04 01:22 -18.53100 -40.68864 35169 ft 443 kts 346°
2026-05-04 01:23 -18.50055 -40.69342 35395 ft 443 kts 346°
2026-05-04 01:23 -18.47011 -40.69820 35591 ft 442 kts 346°
2026-05-04 01:23 -18.44007 -40.70294 35787 ft 442 kts 346°
2026-05-04 01:23 -18.41020 -40.70981 35930 ft 438 kts 338°
2026-05-04 01:24 -18.38164 -40.72052 36113 ft 435 kts 334°
2026-05-04 01:24 -18.35366 -40.73251 36325 ft 433 kts 332°
2026-05-04 01:24 -18.32601 -40.74509 36527 ft 432 kts 332°
2026-05-04 01:24 -18.29854 -40.75788 36741 ft 431 kts 331°
2026-05-04 01:25 -18.27113 -40.77067 36928 ft 431 kts 331°
2026-05-04 01:25 -18.24372 -40.78339 37131 ft 430 kts 332°
2026-05-04 01:25 -18.21669 -40.79583 37310 ft 430 kts 332°
2026-05-04 01:25 -18.18932 -40.80833 37477 ft 430 kts 332°
2026-05-04 01:26 -18.16187 -40.82082 37640 ft 430 kts 332°
2026-05-04 01:26 -18.13442 -40.83327 37778 ft 430 kts 332°
2026-05-04 01:26 -18.10697 -40.84570 37915 ft 430 kts 332°
2026-05-04 01:26 -18.07950 -40.85814 38067 ft 429 kts 332°
2026-05-04 01:27 -18.05205 -40.87057 38155 ft 430 kts 332°
2026-05-04 01:27 -17.99746 -40.89527 38143 ft 429 kts 332°
2026-05-04 01:28 -17.94260 -40.92008 38139 ft 429 kts 332°
2026-05-04 01:28 -17.88771 -40.94491 38150 ft 429 kts 332°
2026-05-04 01:29 -17.83283 -40.96970 38143 ft 430 kts 332°
2026-05-04 01:29 -17.77777 -40.99456 38154 ft 431 kts 332°
2026-05-04 01:30 -17.72307 -41.01923 38154 ft 431 kts 332°
2026-05-04 01:30 -17.66794 -41.04408 38150 ft 431 kts 332°
2026-05-04 01:31 -17.61286 -41.06890 38148 ft 431 kts 332°
2026-05-04 01:31 -17.55773 -41.09372 38138 ft 431 kts 332°
2026-05-04 01:32 -17.50294 -41.11838 38151 ft 432 kts 332°
2026-05-04 01:32 -17.44764 -41.14324 38154 ft 433 kts 332°
2026-05-04 01:33 -17.39226 -41.16812 38151 ft 433 kts 332°
2026-05-04 01:33 -17.33732 -41.19279 38159 ft 433 kts 332°
2026-05-04 01:34 -17.28202 -41.21761 38156 ft 433 kts 332°
2026-05-04 01:34 -17.22665 -41.24244 38162 ft 433 kts 333°
2026-05-04 01:35 -17.17123 -41.26729 38167 ft 433 kts 332°
2026-05-04 01:35 -17.11623 -41.29192 38162 ft 433 kts 333°
2026-05-04 01:36 -17.06078 -41.31674 38161 ft 433 kts 332°
2026-05-04 01:36 -17.00539 -41.34152 38163 ft 433 kts 333°
2026-05-04 01:37 -16.94996 -41.36630 38159 ft 433 kts 333°
2026-05-04 01:37 -16.89494 -41.39088 38157 ft 433 kts 333°
2026-05-04 01:38 -16.83950 -41.41562 38154 ft 433 kts 333°
2026-05-04 01:38 -16.78406 -41.44035 38154 ft 433 kts 333°
2026-05-04 01:39 -16.72864 -41.46506 38153 ft 433 kts 333°
2026-05-04 01:39 -16.67355 -41.48962 38135 ft 433 kts 333°
2026-05-04 01:40 -16.61810 -41.51431 38144 ft 434 kts 333°
2026-05-04 01:40 -16.56261 -41.53901 38137 ft 433 kts 333°
2026-05-04 01:41 -16.50713 -41.56368 38138 ft 434 kts 333°
2026-05-04 01:41 -16.45200 -41.58819 38137 ft 434 kts 333°
2026-05-04 01:42 -16.39646 -41.61285 38133 ft 434 kts 333°
2026-05-04 01:42 -16.34090 -41.63752 38132 ft 434 kts 333°
2026-05-04 01:43 -16.28563 -41.66205 38129 ft 435 kts 333°
2026-05-04 01:43 -16.22991 -41.68675 38128 ft 435 kts 333°
2026-05-04 01:44 -16.17420 -41.71143 38129 ft 435 kts 333°
2026-05-04 01:44 -16.11853 -41.73609 38133 ft 435 kts 333°
2026-05-04 01:45 -16.06323 -41.76057 38131 ft 435 kts 333°
2026-05-04 01:45 -15.97946 -41.79761 38130 ft 436 kts 333°
2026-05-04 01:46 -15.92359 -41.82230 38133 ft 436 kts 333°
2026-05-04 01:46 -15.86771 -41.84697 38133 ft 436 kts 333°
2026-05-04 01:47 -15.81221 -41.87147 38129 ft 436 kts 333°
2026-05-04 01:47 -15.75634 -41.89611 38128 ft 437 kts 333°
2026-05-04 01:48 -15.70037 -41.92079 38127 ft 437 kts 333°
2026-05-04 01:48 -15.64439 -41.94545 38127 ft 437 kts 333°
2026-05-04 01:49 -15.58879 -41.96993 38129 ft 437 kts 333°
2026-05-04 01:49 -15.53280 -41.99457 38129 ft 437 kts 333°
2026-05-04 01:50 -15.47680 -42.01919 38130 ft 438 kts 334°
2026-05-04 01:50 -15.42064 -42.04388 38127 ft 438 kts 334°
2026-05-04 01:51 -15.36487 -42.06838 38127 ft 438 kts 334°
2026-05-04 01:51 -15.30871 -42.09303 38126 ft 438 kts 334°
2026-05-04 01:52 -15.25252 -42.11768 38124 ft 438 kts 334°
2026-05-04 01:52 -15.19637 -42.14230 38121 ft 438 kts 334°
2026-05-04 01:53 -15.14052 -42.16679 38124 ft 439 kts 334°
2026-05-04 01:53 -15.08421 -42.19145 38125 ft 439 kts 334°
2026-05-04 01:54 -15.02791 -42.21609 38120 ft 439 kts 334°
2026-05-04 01:54 -14.97163 -42.24071 38125 ft 439 kts 334°
2026-05-04 01:55 -14.91569 -42.26517 38113 ft 439 kts 334°
2026-05-04 01:55 -14.85929 -42.28982 38111 ft 441 kts 334°
2026-05-04 01:56 -14.80280 -42.31449 38110 ft 441 kts 334°
2026-05-04 01:56 -14.74629 -42.33915 38101 ft 441 kts 334°
2026-05-04 01:57 -14.68980 -42.36379 38112 ft 441 kts 334°
2026-05-04 01:57 -14.63364 -42.38828 38092 ft 441 kts 334°
2026-05-04 01:58 -14.57714 -42.41290 38102 ft 442 kts 334°
2026-05-04 01:58 -14.52048 -42.43758 38100 ft 442 kts 334°
2026-05-04 01:59 -14.46384 -42.46223 38093 ft 442 kts 334°
2026-05-04 01:59 -14.40869 -42.48883 38092 ft 440 kts 330°
2026-05-04 02:00 -14.35429 -42.51787 38094 ft 440 kts 329°
2026-05-04 02:00 -14.29992 -42.54709 38090 ft 441 kts 330°
2026-05-04 02:01 -14.24564 -42.57589 38086 ft 442 kts 330°
2026-05-04 02:01 -14.19088 -42.60472 38086 ft 442 kts 330°
2026-05-04 02:02 -14.13605 -42.63352 38080 ft 442 kts 330°
2026-05-04 02:02 -14.08128 -42.66228 38076 ft 442 kts 330°
2026-05-04 02:03 -14.02684 -42.69087 38077 ft 442 kts 330°
2026-05-04 02:03 -13.97210 -42.71952 38073 ft 442 kts 330°
2026-05-04 02:04 -13.91731 -42.74829 38071 ft 442 kts 330°
2026-05-04 02:04 -13.86252 -42.77705 38070 ft 442 kts 330°
2026-05-04 02:05 -13.80766 -42.80581 38062 ft 442 kts 330°
2026-05-04 02:05 -13.75326 -42.83430 38060 ft 442 kts 330°
2026-05-04 02:06 -13.69851 -42.86295 38052 ft 442 kts 330°
2026-05-04 02:06 -13.64360 -42.89168 38051 ft 443 kts 330°
2026-05-04 02:07 -13.58867 -42.92041 38058 ft 443 kts 330°
2026-05-04 02:07 -13.53410 -42.94893 38041 ft 443 kts 330°
2026-05-04 02:08 -13.47914 -42.97762 38044 ft 443 kts 330°
2026-05-04 02:08 -13.42423 -43.00629 38037 ft 443 kts 330°
2026-05-04 02:09 -13.36918 -43.03503 38029 ft 444 kts 330°
2026-05-04 02:09 -13.31451 -43.06355 38033 ft 444 kts 330°
2026-05-04 02:10 -13.25943 -43.09226 38036 ft 444 kts 330°
2026-05-04 02:10 -13.20437 -43.12094 38034 ft 444 kts 330°
2026-05-04 02:11 -13.14926 -43.14964 38036 ft 444 kts 330°
2026-05-04 02:11 -13.09453 -43.17813 38030 ft 444 kts 330°
2026-05-04 02:12 -13.03938 -43.20682 38029 ft 444 kts 330°
2026-05-04 02:12 -12.98426 -43.23548 38032 ft 444 kts 330°
2026-05-04 02:13 -12.92907 -43.26416 38026 ft 445 kts 330°
2026-05-04 02:13 -12.87431 -43.29261 38021 ft 445 kts 330°
2026-05-04 02:14 -12.81913 -43.32126 38025 ft 445 kts 330°
2026-05-04 02:14 -12.76390 -43.34992 38023 ft 445 kts 330°
2026-05-04 02:15 -12.70866 -43.37857 38024 ft 445 kts 330°
2026-05-04 02:15 -12.65343 -43.40720 38022 ft 445 kts 330°
2026-05-04 02:16 -12.59861 -43.43560 38021 ft 445 kts 330°
2026-05-04 02:16 -12.54336 -43.46422 38017 ft 445 kts 330°
2026-05-04 02:17 -12.48810 -43.49283 38023 ft 445 kts 331°
2026-05-04 02:17 -12.43316 -43.52126 38023 ft 446 kts 331°
2026-05-04 02:18 -12.37808 -43.55033 37921 ft 446 kts 330°
2026-05-04 02:18 -12.32256 -43.57900 38022 ft 448 kts 331°
2026-05-04 02:19 -12.26694 -43.60736 38026 ft 446 kts 331°
2026-05-04 02:19 -12.21185 -43.63563 38016 ft 446 kts 331°
2026-05-04 02:20 -12.15648 -43.66418 38023 ft 446 kts 331°
2026-05-04 02:20 -12.10111 -43.69276 38029 ft 446 kts 331°
2026-05-04 02:21 -12.04567 -43.72136 38026 ft 446 kts 331°
2026-05-04 02:21 -11.99027 -43.74993 38026 ft 446 kts 331°
2026-05-04 02:22 -11.93526 -43.77827 38027 ft 446 kts 331°
2026-05-04 02:22 -11.87981 -43.80682 38029 ft 446 kts 331°
2026-05-04 02:23 -11.82437 -43.83536 38017 ft 446 kts 331°
2026-05-04 02:23 -11.76892 -43.86389 38021 ft 446 kts 331°
2026-05-04 02:24 -11.71381 -43.89223 38018 ft 446 kts 331°
2026-05-04 02:24 -11.65839 -43.92072 38017 ft 446 kts 331°
2026-05-04 02:25 -11.60484 -43.94824 38015 ft 447 kts 331°
2026-05-04 02:25 -11.54935 -43.97674 38015 ft 447 kts 331°
2026-05-04 02:26 -11.49417 -44.00506 38015 ft 447 kts 331°
2026-05-04 02:26 -11.43868 -44.03354 38016 ft 447 kts 331°
2026-05-04 02:27 -11.38317 -44.06201 38015 ft 446 kts 331°
2026-05-04 02:27 -11.32771 -44.09044 38015 ft 446 kts 331°
2026-05-04 02:28 -11.27268 -44.11865 38015 ft 446 kts 331°
2026-05-04 02:28 -11.21724 -44.14705 38015 ft 446 kts 331°
2026-05-04 02:29 -11.16177 -44.17545 38015 ft 446 kts 331°
2026-05-04 02:29 -11.10634 -44.20382 38015 ft 446 kts 331°
2026-05-04 02:30 -11.05126 -44.23199 38015 ft 446 kts 331°
2026-05-04 02:30 -10.99582 -44.26034 38021 ft 446 kts 331°
2026-05-04 02:31 -10.94041 -44.28867 38021 ft 446 kts 331°
2026-05-04 02:31 -10.88503 -44.31697 38021 ft 446 kts 331°
2026-05-04 02:32 -10.82957 -44.34529 38021 ft 446 kts 331°
2026-05-04 02:32 -10.77456 -44.37338 38019 ft 445 kts 331°
2026-05-04 02:33 -10.71920 -44.40162 38021 ft 445 kts 331°
2026-05-04 02:33 -10.66387 -44.42984 38020 ft 445 kts 331°
2026-05-04 02:34 -10.60859 -44.45803 38020 ft 444 kts 331°
2026-05-04 02:34 -10.55331 -44.48621 38014 ft 444 kts 331°
2026-05-04 02:35 -10.49841 -44.51418 38012 ft 444 kts 331°
2026-05-04 02:35 -10.44320 -44.54229 38012 ft 444 kts 331°
2026-05-04 02:36 -10.38801 -44.57039 38012 ft 443 kts 331°
2026-05-04 02:36 -10.33351 -44.59812 38012 ft 443 kts 331°
2026-05-04 02:37 -10.27871 -44.62600 38005 ft 443 kts 331°
2026-05-04 02:37 -10.22357 -44.65403 38006 ft 443 kts 331°
2026-05-04 02:38 -10.16856 -44.68199 38007 ft 442 kts 330°
2026-05-04 02:38 -10.11362 -44.70991 38005 ft 441 kts 330°
2026-05-04 02:39 -10.05908 -44.73761 38004 ft 441 kts 330°
2026-05-04 02:39 -10.00415 -44.76550 38004 ft 442 kts 330°
2026-05-04 02:40 -9.94919 -44.79339 38005 ft 441 kts 330°
2026-05-04 02:40 -9.89428 -44.82125 38002 ft 441 kts 330°
2026-05-04 02:41 -9.83984 -44.84885 38004 ft 440 kts 330°
2026-05-04 02:41 -9.78507 -44.87661 38004 ft 440 kts 330°
2026-05-04 02:42 -9.73028 -44.90438 38004 ft 440 kts 330°
2026-05-04 02:42 -9.67550 -44.93213 38004 ft 440 kts 330°
2026-05-04 02:43 -9.62106 -44.95970 38009 ft 440 kts 330°
2026-05-04 02:43 -9.56621 -44.98746 38009 ft 440 kts 330°
2026-05-04 02:44 -9.51138 -45.01507 38012 ft 440 kts 330°
2026-05-04 02:44 -9.45755 -45.04184 38012 ft 440 kts 331°
2026-05-04 02:45 -9.40287 -45.06896 38015 ft 440 kts 331°
2026-05-04 02:45 -9.34786 -45.09626 38013 ft 440 kts 331°
2026-05-04 02:46 -9.29285 -45.12357 38015 ft 440 kts 331°
2026-05-04 02:46 -9.23787 -45.15087 38014 ft 440 kts 331°
2026-05-04 02:47 -9.18327 -45.17797 38018 ft 440 kts 331°
2026-05-04 02:47 -9.12826 -45.20526 38014 ft 440 kts 331°
2026-05-04 02:48 -9.07332 -45.23251 38016 ft 439 kts 331°
2026-05-04 02:48 -9.01842 -45.25972 38013 ft 439 kts 331°
2026-05-04 02:49 -8.96475 -45.28633 38012 ft 439 kts 331°
2026-05-04 02:49 -8.90989 -45.31351 38010 ft 439 kts 331°
2026-05-04 02:50 -8.85501 -45.34069 38009 ft 439 kts 331°
2026-05-04 02:50 -8.80012 -45.36787 38009 ft 439 kts 331°
2026-05-04 02:51 -8.74524 -45.39503 38005 ft 439 kts 331°
2026-05-04 02:51 -8.69071 -45.42201 38004 ft 439 kts 331°
2026-05-04 02:52 -8.63585 -45.44915 38004 ft 439 kts 332°
2026-05-04 02:52 -8.58093 -45.47630 38004 ft 439 kts 332°
2026-05-04 02:53 -8.52640 -45.50326 38002 ft 439 kts 332°
2026-05-04 02:53 -8.47148 -45.53039 38000 ft 439 kts 332°
2026-05-04 02:54 -8.41729 -45.55716 37999 ft 439 kts 332°
2026-05-04 02:54 -8.36232 -45.58431 37999 ft 439 kts 332°
2026-05-04 02:55 -8.28030 -45.62480 37998 ft 439 kts 332°
2026-05-04 02:56 -8.22536 -45.65191 37999 ft 440 kts 332°
2026-05-04 02:56 -8.17042 -45.67901 37999 ft 439 kts 332°
2026-05-04 02:57 -8.11544 -45.70612 37994 ft 440 kts 332°
2026-05-04 02:57 -8.06086 -45.73303 37994 ft 440 kts 332°
2026-05-04 02:58 -8.00584 -45.76015 37994 ft 440 kts 332°
2026-05-04 02:58 -7.95084 -45.78725 37994 ft 440 kts 332°
2026-05-04 02:59 -7.89577 -45.81437 37994 ft 440 kts 332°
2026-05-04 02:59 -7.84073 -45.84148 37989 ft 440 kts 332°
2026-05-04 03:00 -7.78606 -45.86839 37990 ft 440 kts 332°
2026-05-04 03:00 -7.73101 -45.89548 37990 ft 440 kts 332°
2026-05-04 03:01 -7.67594 -45.92257 37989 ft 440 kts 332°
2026-05-04 03:01 -7.62090 -45.94964 37984 ft 440 kts 332°
2026-05-04 03:02 -7.56631 -45.97648 37985 ft 439 kts 332°
2026-05-04 03:02 -7.51140 -46.00348 37988 ft 439 kts 332°
2026-05-04 03:03 -7.45643 -46.03049 37988 ft 440 kts 332°
2026-05-04 03:03 -7.40145 -46.05750 37988 ft 440 kts 332°
2026-05-04 03:04 -7.34686 -46.08431 37986 ft 439 kts 332°
2026-05-04 03:04 -7.29206 -46.11122 37989 ft 438 kts 332°
2026-05-04 03:05 -7.23729 -46.13810 37988 ft 438 kts 332°
2026-05-04 03:05 -7.18253 -46.16497 37991 ft 438 kts 332°
2026-05-04 03:06 -7.12772 -46.19186 37998 ft 438 kts 332°
2026-05-04 03:06 -7.07331 -46.21855 37995 ft 438 kts 332°
2026-05-04 03:07 -7.01858 -46.24539 38003 ft 437 kts 332°
2026-05-04 03:07 -6.96387 -46.27220 38001 ft 437 kts 332°
2026-05-04 03:08 -6.90914 -46.29903 38001 ft 437 kts 332°
2026-05-04 03:08 -6.85478 -46.32566 38002 ft 437 kts 332°
2026-05-04 03:09 -6.80011 -46.35244 38001 ft 437 kts 332°
2026-05-04 03:09 -6.74545 -46.37921 38001 ft 437 kts 332°
2026-05-04 03:10 -6.69105 -46.40584 38002 ft 438 kts 332°
2026-05-04 03:10 -6.63634 -46.43262 38001 ft 438 kts 332°
2026-05-04 03:11 -6.58157 -46.45942 38000 ft 437 kts 332°
2026-05-04 03:11 -6.52690 -46.48617 38002 ft 437 kts 332°
2026-05-04 03:12 -6.47257 -46.51274 37998 ft 437 kts 332°
2026-05-04 03:12 -6.41872 -46.54084 37999 ft 435 kts 326°
2026-05-04 03:13 -6.36763 -46.57350 38000 ft 435 kts 326°
2026-05-04 03:13 -6.31684 -46.60657 37999 ft 435 kts 325°
2026-05-04 03:14 -6.26645 -46.63957 37996 ft 435 kts 325°
2026-05-04 03:14 -6.21576 -46.67281 37997 ft 435 kts 325°
2026-05-04 03:15 -6.16511 -46.70602 37994 ft 435 kts 325°
2026-05-04 03:15 -6.11446 -46.73924 37993 ft 435 kts 325°
2026-05-04 03:16 -6.06379 -46.77247 37993 ft 435 kts 326°
2026-05-04 03:16 -6.01345 -46.80546 37993 ft 435 kts 326°
2026-05-04 03:17 -5.96276 -46.83868 37988 ft 435 kts 326°
2026-05-04 03:17 -5.91210 -46.87188 37987 ft 435 kts 326°
2026-05-04 03:18 -5.86140 -46.90509 37991 ft 435 kts 326°
2026-05-04 03:18 -5.81926 -46.93270 37991 ft 435 kts 326°
2026-05-04 03:19 -5.76858 -46.96588 37990 ft 435 kts 326°
2026-05-04 03:19 -5.70969 -47.00444 37988 ft 434 kts 326°
2026-05-04 03:20 -5.65908 -47.03757 37988 ft 434 kts 326°
2026-05-04 03:20 -5.61700 -47.06510 37985 ft 434 kts 326°
2026-05-04 03:21 -5.56640 -47.09821 37986 ft 435 kts 326°
2026-05-04 03:21 -5.51565 -47.13141 37988 ft 436 kts 326°
2026-05-04 03:22 -5.45662 -47.17001 37983 ft 436 kts 326°
2026-05-04 03:22 -5.41438 -47.19763 37985 ft 436 kts 326°
2026-05-04 03:23 -5.35534 -47.23623 37986 ft 436 kts 326°
2026-05-04 03:23 -5.30456 -47.26942 37987 ft 436 kts 327°
2026-05-04 03:24 -5.26232 -47.29702 37983 ft 436 kts 327°
2026-05-04 03:24 -5.21146 -47.33025 37985 ft 436 kts 327°
2026-05-04 03:25 -5.16059 -47.36348 37982 ft 436 kts 327°
2026-05-04 03:25 -5.10146 -47.40209 37982 ft 436 kts 327°
2026-05-04 03:26 -5.05916 -47.42972 37986 ft 437 kts 327°
2026-05-04 03:26 -5.00825 -47.46295 37988 ft 437 kts 327°
2026-05-04 03:27 -4.95736 -47.49617 37986 ft 436 kts 327°
2026-05-04 03:27 -4.90647 -47.52938 37991 ft 436 kts 327°
2026-05-04 03:28 -4.85594 -47.56235 37988 ft 436 kts 327°
2026-05-04 03:28 -4.80500 -47.59558 37988 ft 436 kts 327°
2026-05-04 03:29 -4.74582 -47.63418 37988 ft 437 kts 327°
2026-05-04 03:29 -4.70315 -47.66201 37991 ft 437 kts 327°
2026-05-04 03:30 -4.65254 -47.69501 37994 ft 437 kts 327°
2026-05-04 03:30 -4.60159 -47.72822 37993 ft 437 kts 327°
2026-05-04 03:31 -4.55066 -47.76141 37993 ft 437 kts 327°
2026-05-04 03:31 -4.49976 -47.79459 37988 ft 436 kts 327°
2026-05-04 03:32 -4.44889 -47.82773 37992 ft 436 kts 327°
2026-05-04 03:32 -4.39833 -47.86067 37988 ft 437 kts 327°
2026-05-04 03:33 -4.34739 -47.89385 37982 ft 437 kts 327°
2026-05-04 03:33 -4.29645 -47.92702 37985 ft 437 kts 327°
2026-05-04 03:34 -4.24583 -47.95998 37985 ft 437 kts 327°
2026-05-04 03:34 -4.19497 -47.99310 37985 ft 435 kts 327°
2026-05-04 03:35 -4.14431 -48.02607 37982 ft 434 kts 327°
2026-05-04 03:35 -4.09352 -48.05913 37982 ft 436 kts 327°
2026-05-04 03:36 -4.04264 -48.09224 37983 ft 436 kts 327°
2026-05-04 03:36 -3.99211 -48.12511 37982 ft 436 kts 327°
2026-05-04 03:37 -3.94125 -48.15820 37982 ft 436 kts 327°
2026-05-04 03:37 -3.89037 -48.19129 37982 ft 436 kts 327°
2026-05-04 03:38 -3.83986 -48.22414 37980 ft 436 kts 327°
2026-05-04 03:38 -3.78898 -48.25722 37980 ft 437 kts 327°
2026-05-04 03:39 -3.73799 -48.29038 37983 ft 437 kts 327°
2026-05-04 03:39 -3.68697 -48.32355 37978 ft 437 kts 327°
2026-05-04 03:40 -3.63629 -48.35649 37980 ft 437 kts 327°
2026-05-04 03:40 -3.58526 -48.38965 37980 ft 437 kts 327°
2026-05-04 03:41 -3.53426 -48.42279 37985 ft 437 kts 327°
2026-05-04 03:41 -3.48001 -48.44937 37980 ft 436 kts 348°
2026-05-04 03:42 -3.42012 -48.45526 37976 ft 437 kts 356°
2026-05-04 03:42 -3.35928 -48.45856 37979 ft 439 kts 356°
2026-05-04 03:43 -3.29830 -48.46201 37978 ft 439 kts 356°
2026-05-04 03:43 -3.23735 -48.46556 37977 ft 439 kts 356°
2026-05-04 03:44 -3.17685 -48.46912 37977 ft 439 kts 356°
2026-05-04 03:44 -3.11593 -48.47271 37976 ft 438 kts 356°
2026-05-04 03:45 -3.05501 -48.47630 37980 ft 439 kts 356°
2026-05-04 03:45 -2.99410 -48.47989 37977 ft 438 kts 356°
2026-05-04 03:46 -2.93359 -48.48346 37977 ft 438 kts 356°
2026-05-04 03:46 -2.87265 -48.48706 37977 ft 438 kts 356°
2026-05-04 03:47 -2.81178 -48.49065 37980 ft 439 kts 356°
2026-05-04 03:47 -2.75075 -48.49424 37980 ft 439 kts 356°
2026-05-04 03:48 -2.69012 -48.49782 37980 ft 439 kts 356°
2026-05-04 03:48 -2.65947 -48.49963 37771 ft 443 kts 356°
2026-05-04 03:48 -2.62870 -48.50144 36979 ft 444 kts 356°
2026-05-04 03:48 -2.59770 -48.50327 35897 ft 449 kts 356°
2026-05-04 03:49 -2.56629 -48.50512 34819 ft 455 kts 357°
2026-05-04 03:49 -2.53438 -48.50700 33679 ft 462 kts 357°
2026-05-04 03:49 -2.50212 -48.50886 32491 ft 467 kts 358°
2026-05-04 03:49 -2.46996 -48.51066 31364 ft 471 kts 357°
2026-05-04 03:50 -2.43717 -48.51262 30259 ft 474 kts 357°
2026-05-04 03:50 -2.40424 -48.51461 29153 ft 474 kts 357°
2026-05-04 03:50 -2.37145 -48.51658 28230 ft 469 kts 357°
2026-05-04 03:50 -2.33908 -48.51851 27363 ft 463 kts 357°
2026-05-04 03:51 -2.30710 -48.52041 26522 ft 458 kts 357°
2026-05-04 03:51 -2.27542 -48.52228 25690 ft 453 kts 357°
2026-05-04 03:51 -2.24412 -48.52413 24867 ft 448 kts 357°
2026-05-04 03:51 -2.21314 -48.52596 24075 ft 444 kts 357°
2026-05-04 03:52 -2.18289 -48.52775 23258 ft 440 kts 357°
2026-05-04 03:52 -2.15256 -48.52945 22347 ft 434 kts 358°
2026-05-04 03:52 -2.12264 -48.53111 21480 ft 429 kts 357°
2026-05-04 03:52 -2.09337 -48.53289 21197 ft 410 kts 357°
2026-05-04 03:53 -2.06582 -48.53458 21165 ft 385 kts 357°
2026-05-04 03:53 -2.03971 -48.53616 20944 ft 368 kts 357°
2026-05-04 03:53 -2.01443 -48.53768 20495 ft 360 kts 357°
2026-05-04 03:53 -1.98953 -48.53915 19865 ft 359 kts 358°
2026-05-04 03:54 -1.96501 -48.54060 19296 ft 356 kts 358°
2026-05-04 03:54 -1.94037 -48.54205 18726 ft 353 kts 358°
2026-05-04 03:54 -1.91591 -48.54349 18151 ft 351 kts 358°
2026-05-04 03:54 -1.89168 -48.54492 17550 ft 347 kts 358°
2026-05-04 03:55 -1.86774 -48.54633 16952 ft 343 kts 358°
2026-05-04 03:55 -1.84402 -48.54773 16377 ft 340 kts 358°
2026-05-04 03:55 -1.82053 -48.54912 15806 ft 336 kts 358°
2026-05-04 03:55 -1.79727 -48.55049 15242 ft 333 kts 358°
2026-05-04 03:56 -1.77457 -48.55183 14702 ft 330 kts 358°
2026-05-04 03:56 -1.75175 -48.55318 14056 ft 330 kts 358°
2026-05-04 03:56 -1.72852 -48.55454 13035 ft 339 kts 358°
2026-05-04 03:56 -1.70460 -48.55594 11927 ft 349 kts 359°
2026-05-04 03:57 -1.68007 -48.55737 10777 ft 358 kts 359°
2026-05-04 03:57 -1.65489 -48.55885 9595 ft 366 kts 359°
2026-05-04 03:57 -1.62938 -48.56036 7959 ft 373 kts 359°
2026-05-04 03:57 -1.60340 -48.56189 6651 ft 371 kts 359°
2026-05-04 03:58 -1.55290 -48.57064 4187 ft 362 kts 340°
2026-05-04 03:58 -1.53121 -48.58276 3157 ft 352 kts 326°
2026-05-04 03:58 -1.51219 -48.59533 3380 ft 305 kts 340°
2026-05-04 03:59 -1.49319 -48.59792 3622 ft 254 kts
2026-05-04 03:59 -1.47650 -48.59584 3444 ft 232 kts 15°
2026-05-04 03:59 -1.46139 -48.59123 2953 ft 224 kts 28°
2026-05-04 03:59 -1.44914 -48.58243 2420 ft 219 kts 49°
2026-05-04 04:00 -1.44253 -48.56912 1853 ft 215 kts 78°
2026-05-04 04:00 -1.44309 -48.55450 1474 ft 205 kts 96°
2026-05-04 04:00 -1.44096 -48.54158 1173 ft 180 kts 66°
2026-05-04 04:00 -1.43466 -48.53186 1019 ft 155 kts 46°
2026-05-04 04:01 -1.42738 -48.52509 1000 ft 134 kts 44°
2026-05-04 04:01 -1.42104 -48.51854 972 ft 130 kts 47°
2026-05-04 04:01 -1.41455 -48.51200 820 ft 135 kts 45°
2026-05-04 04:01 -1.40797 -48.50534 653 ft 135 kts 46°
2026-05-04 04:02 -1.40146 -48.49873 476 ft 135 kts 45°
2026-05-04 04:02 -1.39488 -48.49207 296 ft 134 kts 46°
2026-05-04 04:02 -1.38854 -48.48565 118 ft 135 kts 45°
2026-05-04 04:02 -1.38288 -48.47991 54 ft 122 kts 46°
2026-05-04 04:03 -1.37881 -48.47571 50 ft 41 kts 46°
2026-05-04 04:03 -1.37837 -48.47525 51 ft 1 kts 46°
2026-05-04 04:03 -1.37847 -48.47535 51 ft 3 kts 46°
2026-05-04 04:03 -1.37836 -48.47521 51 ft 1 kts 20°
2026-05-04 04:04 -1.37832 -48.47527 51 ft 2 kts 284°
2026-05-04 04:04 -1.37862 -48.47559 51 ft 11 kts 219°
2026-05-04 04:04 -1.37926 -48.47601 50 ft 11 kts 207°
2026-05-04 04:04 -1.37990 -48.47623 49 ft 9 kts 195°
2026-05-04 04:05 -1.38077 -48.47635 51 ft 22 kts 184°
2026-05-04 04:05 -1.38227 -48.47649 55 ft 21 kts 184°
2026-05-04 04:05 -1.38370 -48.47661 53 ft 21 kts 185°
2026-05-04 04:05 -1.38510 -48.47671 56 ft 19 kts 180°
2026-05-04 04:06 -1.38628 -48.47689 52 ft 15 kts 207°
2026-05-04 04:06 -1.38665 -48.47758 58 ft 11 kts 256°
2026-05-04 04:06 -1.38706 -48.47788 58 ft 7 kts 195°
2026-05-04 04:06 -1.38759 -48.47797 58 ft 8 kts 189°
2026-05-04 04:07 -1.38812 -48.47805 55 ft 8 kts 189°
2026-05-04 04:07 -1.38855 -48.47819 58 ft 6 kts 216°
2026-05-04 04:07 -1.38887 -48.47845 56 ft 6 kts 221°
2026-05-04 04:07 -1.38914 -48.47872 56 ft 5 kts 226°
2026-05-04 04:08 -1.38932 -48.47896 59 ft 4 kts 242°
2026-05-04 04:08 -1.38933 -48.47900 59 ft 0 kts 243°